SLATS (TSUBAME) (43066 NORAD) Tracking and Keplerian Element Data

This shows tracking and keplerian element data for the satellite.

Feedback or suggestion? Click here.




ElementValue
Catalog43066
NameSLATS (TSUBAME)
Epoch Orbit447
Epoch Day21.80658056
Epoch Year2018
RAAN98.159
Inclination98.3093
Eccentricity0.007567
Argument of Perigee8.0481
Mean Anonmoly352.2145
Mean Motion15.18722081
Decay Rate-9.3E-07
L11 43066U 17082B 18021.80658056 -.00000093 00000-0 00000+0 0 9999
L22 43066 98.3093 98.1590 0075670 8.0481 352.2145 15.18722081 4473

Live tracking and technical data element details for SLATS (TSUBAME) (NORAD 43066). SLATS (TSUBAME) can be tracked NOW for your location showing map with azimuth and elevation plus other details from your city location.

Track the satellite on the map from your city or location and see movement details for azimuth, elevation, latitude, longitude, range, height, and movement on the map or in text.







IsCatalogInMostPopularTable: catalog: 43066, numindb: 162
Update: records affected: 1



GetName: 43066 SLATS (TSUBAME)

Hit Count: updated at: Mon, 19 Nov 2018 14:04:22 GMT